�������l�o���
Date,Time,MP-1(��Sv/h),MP-2(��Sv/h),MP-3(��Sv/h),MP-4(��Sv/h),MP-5(��Sv/h),MP-6(��Sv/h),MP-7(��Sv/h),MP-8(��Sv/h),����,����(m/s),���J
2023/04/10,00:00,0.560,0.810,0.490,1.014,0.715,0.319,0.572,0.542,��,5.8,��
2023/04/10,00:10,0.558,0.809,0.490,1.014,0.713,0.319,0.573,0.544,���쐼,4.4,��
2023/04/10,00:20,0.558,0.811,0.491,1.014,0.713,0.319,0.573,0.544,��,5.5,��
2023/04/10,00:30,0.560,0.811,0.489,1.015,0.713,0.319,0.575,0.542,��,6.3,��
2023/04/10,00:40,0.558,0.811,0.490,1.013,0.712,0.319,0.572,0.543,��,5.1,��
2023/04/10,00:50,0.559,0.811,0.491,1.014,0.713,0.320,0.573,0.543,��,4.0,��
2023/04/10,01:00,0.558,0.811,0.491,1.014,0.712,0.320,0.573,0.543,��,4.6,��
2023/04/10,01:10,0.559,0.812,0.491,1.014,0.713,0.319,0.572,0.543,��,5.0,��
2023/04/10,01:20,0.558,0.812,0.490,1.016,0.714,0.319,0.573,0.544,��,4.1,��
2023/04/10,01:30,0.560,0.810,0.489,1.015,0.715,0.319,0.574,0.544,��,4.7,��
2023/04/10,01:40,0.557,0.811,0.489,1.014,0.715,0.319,0.573,0.544,��,4.7,��
2023/04/10,01:50,0.558,0.807,0.490,1.013,0.715,0.317,0.573,0.544,��,4.7,��
2023/04/10,02:00,0.558,0.810,0.491,1.015,0.712,0.319,0.573,0.544,��,4.0,��
2023/04/10,02:10,0.559,0.812,0.490,1.013,0.714,0.319,0.571,0.543,���k��,3.6,��
2023/04/10,02:20,0.560,0.811,0.490,1.016,0.712,0.319,0.573,0.543,��,3.0,��
2023/04/10,02:30,0.557,0.810,0.489,1.013,0.713,0.320,0.574,0.542,���쐼,3.1,��
2023/04/10,02:40,0.558,0.811,0.488,1.012,0.713,0.318,0.573,0.544,���쐼,2.8,��
2023/04/10,02:50,0.559,0.811,0.490,1.014,0.715,0.319,0.572,0.543,�쐼,2.3,��
2023/04/10,03:00,0.556,0.811,0.489,1.014,0.713,0.318,0.572,0.544,�쐼,3.9,��
2023/04/10,03:10,0.557,0.811,0.490,1.013,0.713,0.319,0.573,0.544,�쐼,3.7,��
2023/04/10,03:20,0.559,0.809,0.489,1.012,0.715,0.320,0.572,0.543,�쐼,3.6,��
2023/04/10,03:30,0.559,0.810,0.489,1.012,0.713,0.319,0.572,0.543,���쐼,4.0,��
2023/04/10,03:40,0.559,0.812,0.490,1.014,0.714,0.318,0.571,0.542,�쐼,4.5,��
2023/04/10,03:50,0.559,0.812,0.489,1.014,0.713,0.320,0.572,0.542,�쐼,4.2,��
2023/04/10,04:00,0.559,0.813,0.490,1.013,0.714,0.320,0.572,0.543,�쐼,4.0,��
2023/04/10,04:10,0.558,0.811,0.489,1.014,0.715,0.319,0.572,0.544,��쐼,4.5,��
2023/04/10,04:20,0.559,0.812,0.490,1.014,0.714,0.318,0.573,0.543,�쐼,4.4,��
2023/04/10,04:30,0.558,0.811,0.489,1.015,0.712,0.319,0.570,0.544,�쐼,3.9,��
2023/04/10,04:40,0.558,0.810,0.491,1.015,0.712,0.320,0.573,0.543,�쐼,3.0,��
2023/04/10,04:50,0.558,0.812,0.488,1.013,0.713,0.319,0.572,0.544,��쐼,3.8,��
2023/04/10,05:00,0.558,0.810,0.488,1.015,0.714,0.318,0.572,0.542,��,4.4,��
2023/04/10,05:10,0.557,0.811,0.489,1.014,0.713,0.320,0.573,0.543,��,4.7,��
2023/04/10,05:20,0.557,0.810,0.489,1.014,0.712,0.319,0.569,0.542,��,3.9,��
2023/04/10,05:30,0.558,0.808,0.490,1.014,0.715,0.318,0.574,0.542,��,3.7,��
2023/04/10,05:40,0.560,0.811,0.489,1.014,0.714,0.318,0.571,0.544,��,3.9,��
2023/04/10,05:50,0.560,0.812,0.489,1.015,0.713,0.318,0.572,0.543,��,3.2,��
2023/04/10,06:00,0.559,0.809,0.490,1.013,0.713,0.319,0.571,0.543,��쓌,2.6,��
2023/04/10,06:10,0.560,0.810,0.489,1.014,0.716,0.318,0.572,0.545,��,3.1,��
2023/04/10,06:20,0.558,0.812,0.489,1.014,0.714,0.319,0.572,0.544,��,4.1,��
2023/04/10,06:30,0.559,0.811,0.489,1.014,0.713,0.320,0.572,0.544,��,4.7,��
2023/04/10,06:40,0.558,0.812,0.489,1.018,0.713,0.320,0.572,0.544,��,5.2,��
2023/04/10,06:50,0.560,0.812,0.490,1.015,0.714,0.319,0.573,0.544,��,6.2,��
2023/04/10,07:00,0.561,0.813,0.491,1.014,0.715,0.320,0.573,0.544,��,7.4,��
2023/04/10,07:10,0.561,0.812,0.490,1.015,0.713,0.319,0.575,0.542,��,7.6,��
2023/04/10,07:20,0.561,0.812,0.491,1.016,0.714,0.320,0.575,0.544,��,8.4,��
2023/04/10,07:30,0.561,0.814,0.492,1.013,0.714,0.320,0.575,0.543,��,7.3,��
2023/04/10,07:40,0.560,0.814,0.492,1.014,0.714,0.319,0.574,0.542,��,6.6,��
2023/04/10,07:50,0.561,0.813,0.492,1.018,0.714,0.318,0.575,0.543,��,7.1,��
2023/04/10,08:00,0.561,0.811,0.492,1.014,0.714,0.318,0.574,0.543,��,8.0,��
2023/04/10,08:10,0.562,0.810,0.493,1.015,0.714,0.320,0.574,0.544,��쓌,9.0,��
2023/04/10,08:20,0.563,0.814,0.492,1.014,0.715,0.319,0.576,0.544,��,9.1,��
2023/04/10,08:30,0.561,0.811,0.493,1.015,0.716,0.319,0.572,0.543,��쓌,10.2,��
2023/04/10,08:40,0.563,0.810,0.492,1.016,0.714,0.318,0.573,0.543,��,10.5,��
2023/04/10,08:50,0.562,0.810,0.492,1.016,0.717,0.318,0.572,0.544,��쓌,13.0,��
2023/04/10,09:00,0.564,0.811,0.493,1.017,0.715,0.318,0.570,0.543,��쓌,13.5,��
2023/04/10,09:10,0.563,0.810,0.492,1.017,0.716,0.319,0.574,0.541,��쓌,11.3,��
2023/04/10,09:20,0.562,0.810,0.492,1.017,0.718,0.319,0.574,0.539,��쓌,11.9,��
2023/04/10,09:30,0.562,0.811,0.491,1.018,0.715,0.319,0.572,0.540,��쓌,11.6,��
2023/04/10,09:40,0.562,0.811,0.491,1.015,0.717,0.319,0.573,0.541,��쓌,11.6,��
2023/04/10,09:50,0.563,0.811,0.493,1.016,0.715,0.319,0.573,0.541,��쓌,10.7,��
2023/04/10,10:00,0.562,0.812,0.492,1.017,0.715,0.319,0.573,0.544,��쓌,10.7,��
2023/04/10,10:10,0.561,0.814,0.493,1.019,0.715,0.321,0.573,0.543,��쓌,10.3,��
2023/04/10,10:20,0.563,0.812,0.492,1.019,0.716,0.320,0.575,0.542,��쓌,10.8,��
2023/04/10,10:30,0.562,0.813,0.493,1.018,0.714,0.321,0.573,0.544,��쓌,9.9,��
2023/04/10,10:40,0.562,0.813,0.493,1.016,0.715,0.321,0.574,0.544,��쓌,9.8,��
2023/04/10,10:50,0.562,0.813,0.490,1.017,0.716,0.319,0.573,0.543,��쓌,11.4,��
2023/04/10,11:00,0.564,0.811,0.491,1.018,0.717,0.321,0.574,0.543,��쓌,11.9,��
2023/04/10,11:10,0.564,0.814,0.486,1.017,0.717,0.321,0.575,0.544,��쓌,11.4,��
2023/04/10,11:20,0.562,0.814,0.485,1.017,0.718,0.321,0.575,0.542,��쓌,11.9,��
2023/04/10,11:30,0.563,0.816,0.490,1.019,0.714,0.321,0.574,0.542,��쓌,11.3,��
2023/04/10,11:40,0.565,0.817,0.492,1.018,0.712,0.319,0.576,0.544,��쓌,10.3,��
2023/04/10,11:50,0.562,0.815,0.492,1.020,0.703,0.321,0.574,0.542,��쓌,11.0,��
2023/04/10,12:00,0.564,0.817,0.493,1.021,0.712,0.320,0.574,0.544,��쓌,10.2,��
2023/04/10,12:10,0.563,0.817,0.492,1.020,0.720,0.321,0.575,0.544,��쓌,9.4,��
2023/04/10,12:20,0.563,0.815,0.492,1.021,0.719,0.322,0.574,0.545,��쓌,11.3,��
2023/04/10,12:30,0.565,0.815,0.494,1.018,0.720,0.322,0.575,0.543,��쓌,11.0,��
2023/04/10,12:40,0.565,0.817,0.494,1.018,0.720,0.321,0.575,0.543,��쓌,11.4,��
2023/04/10,12:50,0.565,0.818,0.496,1.018,0.718,0.320,0.574,0.544,��쓌,11.3,��
2023/04/10,13:00,0.564,0.818,0.492,1.020,0.723,0.321,0.576,0.544,��쓌,12.7,��
2023/04/10,13:10,0.565,0.813,0.493,1.020,0.721,0.321,0.576,0.545,��쓌,11.6,��
2023/04/10,13:20,0.564,0.818,0.494,1.019,0.719,0.321,0.576,0.543,��쓌,13.5,��
2023/04/10,13:30,0.564,0.815,0.492,1.022,0.720,0.321,0.576,0.544,��쓌,10.8,��
2023/04/10,13:40,0.567,0.815,0.494,1.020,0.721,0.322,0.574,0.544,��쓌,13.3,��
2023/04/10,13:50,0.565,0.814,0.494,1.022,0.721,0.322,0.574,0.545,��쓌,12.0,��
2023/04/10,14:00,0.565,0.818,0.493,1.020,0.722,0.322,0.576,0.544,��쓌,11.3,��
2023/04/10,14:10,0.565,0.816,0.494,1.021,0.721,0.321,0.575,0.543,��쓌,11.4,��
2023/04/10,14:20,0.566,0.818,0.494,1.021,0.723,0.321,0.575,0.544,��쓌,15.3,��
2023/04/10,14:30,0.566,0.816,0.495,1.023,0.721,0.322,0.577,0.543,��쓌,14.4,��
2023/04/10,14:40,0.566,0.819,0.496,1.020,0.722,0.321,0.575,0.544,��쓌,11.1,��
2023/04/10,14:50,0.565,0.818,0.493,1.021,0.721,0.321,0.576,0.545,��쓌,11.6,��
2023/04/10,15:00,0.567,0.819,0.494,1.020,0.722,0.323,0.574,0.545,��쓌,10.2,��
2023/04/10,15:10,0.564,0.819,0.494,1.022,0.723,0.322,0.576,0.545,��쓌,10.2,��
2023/04/10,15:20,0.567,0.818,0.493,1.024,0.722,0.322,0.576,0.545,��쓌,9.7,��
2023/04/10,15:30,0.567,0.819,0.494,1.021,0.723,0.321,0.576,0.545,��,9.6,��
2023/04/10,15:40,0.565,0.819,0.495,1.020,0.721,0.322,0.576,0.543,��쓌,10.0,��
2023/04/10,15:50,0.567,0.816,0.495,1.019,0.721,0.323,0.576,0.544,��쓌,10.6,��
2023/04/10,16:00,0.567,0.817,0.494,1.016,0.720,0.321,0.578,0.543,��쓌,8.9,��
2023/04/10,16:10,0.567,0.818,0.495,1.020,0.722,0.322,0.576,0.544,��쓌,10.5,��
2023/04/10,16:20,0.566,0.819,0.495,1.018,0.721,0.323,0.575,0.543,��쓌,9.0,��
2023/04/10,16:30,0.567,0.818,0.494,1.018,0.720,0.323,0.575,0.544,��,8.3,��
2023/04/10,16:40,0.566,0.818,0.495,1.017,0.723,0.323,0.576,0.545,��,8.9,��
2023/04/10,16:50,0.565,0.817,0.495,1.018,0.722,0.322,0.575,0.544,��쓌,9.5,��
2023/04/10,17:00,0.565,0.820,0.495,1.018,0.721,0.322,0.574,0.544,��,7.9,��
2023/04/10,17:10,0.566,0.821,0.494,1.019,0.722,0.324,0.576,0.545,��,5.5,��
2023/04/10,17:20,0.566,0.822,0.494,1.020,0.722,0.323,0.576,0.545,��,6.2,��
2023/04/10,17:30,0.565,0.820,0.493,1.018,0.722,0.324,0.574,0.546,��,7.3,��
2023/04/10,17:40,0.566,0.822,0.494,1.019,0.722,0.323,0.577,0.549,��,7.8,��
2023/04/10,17:50,0.568,0.820,0.494,1.018,0.722,0.324,0.576,0.547,��,7.0,��
2023/04/10,18:00,0.566,0.822,0.495,1.020,0.723,0.324,0.575,0.547,��,8.2,��
2023/04/10,18:10,0.568,0.822,0.495,1.023,0.722,0.324,0.574,0.545,��,8.3,��
2023/04/10,18:20,0.570,0.821,0.494,1.023,0.722,0.324,0.576,0.547,��,8.5,��
2023/04/10,18:30,0.569,0.821,0.496,1.021,0.723,0.325,0.577,0.546,��,7.6,��
2023/04/10,18:40,0.569,0.822,0.498,1.021,0.725,0.324,0.577,0.548,��쐼,6.8,��
2023/04/10,18:50,0.568,0.823,0.497,1.020,0.724,0.324,0.576,0.547,�쐼,6.7,��
2023/04/10,19:00,0.569,0.822,0.496,1.023,0.725,0.324,0.577,0.546,�쐼,5.4,��
2023/04/10,19:10,0.570,0.824,0.497,1.020,0.724,0.323,0.576,0.546,�쐼,5.7,��
2023/04/10,19:20,0.569,0.820,0.497,1.025,0.726,0.324,0.576,0.546,�쐼,4.5,��
2023/04/10,19:30,0.568,0.821,0.495,1.022,0.724,0.324,0.577,0.546,���쐼,3.9,��
2023/04/10,19:40,0.567,0.821,0.496,1.023,0.723,0.324,0.575,0.546,���쐼,4.3,��
2023/04/10,19:50,0.567,0.820,0.496,1.022,0.723,0.323,0.577,0.544,���쐼,2.6,��
2023/04/10,20:00,0.567,0.820,0.496,1.023,0.723,0.324,0.576,0.544,���k��,2.2,��
2023/04/10,20:10,0.567,0.821,0.496,1.021,0.723,0.326,0.577,0.546,���k��,2.0,��
2023/04/10,20:20,0.566,0.820,0.497,1.024,0.722,0.322,0.575,0.547,��,0.9,��
2023/04/10,20:30,0.566,0.822,0.496,1.022,0.724,0.323,0.574,0.545,��,1.4,��
2023/04/10,20:40,0.567,0.819,0.495,1.023,0.726,0.323,0.577,0.547,���쐼,2.2,��
2023/04/10,20:50,0.566,0.822,0.496,1.021,0.724,0.323,0.575,0.547,��,2.9,��
2023/04/10,21:00,0.565,0.820,0.496,1.023,0.724,0.322,0.577,0.545,��,3.8,��
2023/04/10,21:10,0.568,0.821,0.496,1.024,0.724,0.323,0.575,0.546,��,3.4,��
2023/04/10,21:20,0.566,0.819,0.498,1.024,0.724,0.323,0.575,0.545,���쐼,4.0,��
2023/04/10,21:30,0.567,0.822,0.494,1.021,0.725,0.322,0.576,0.545,��,3.1,��
2023/04/10,21:40,0.567,0.820,0.497,1.023,0.724,0.323,0.577,0.546,���쐼,4.3,��
2023/04/10,21:50,0.566,0.822,0.494,1.021,0.722,0.322,0.576,0.547,���쐼,4.0,��
2023/04/10,22:00,0.567,0.820,0.497,1.022,0.726,0.324,0.577,0.545,��,3.0,��
2023/04/10,22:10,0.566,0.820,0.494,1.021,0.724,0.322,0.576,0.545,��,3.0,��
2023/04/10,22:20,0.567,0.819,0.496,1.023,0.725,0.322,0.577,0.546,��,3.8,��
2023/04/10,22:30,0.567,0.819,0.495,1.022,0.723,0.324,0.578,0.545,��,3.7,��
2023/04/10,22:40,0.567,0.822,0.495,1.022,0.722,0.321,0.575,0.545,��,3.5,��
2023/04/10,22:50,0.566,0.821,0.497,1.024,0.723,0.324,0.576,0.544,��,3.3,��
2023/04/10,23:00,0.566,0.820,0.496,1.022,0.723,0.323,0.576,0.546,���쐼,2.6,��
2023/04/10,23:10,0.568,0.820,0.497,1.024,0.724,0.323,0.576,0.545,���쐼,1.9,��
2023/04/10,23:20,0.567,0.819,0.495,1.021,0.722,0.323,0.575,0.544,��,1.5,��
2023/04/10,23:30,0.566,0.818,0.494,1.023,0.723,0.323,0.576,0.546,��,1.4,��
2023/04/10,23:40,0.568,0.819,0.494,1.023,0.723,0.323,0.576,0.546,���쐼,1.1,��
2023/04/10,23:50,0.567,0.820,0.496,1.024,0.723,0.324,0.575,0.544,���쐼,0.9,��
